User: anonymous   Login
Location: Helsinki
(60.1699°N, 24.9384°E)
Time: 08:19:22
(UTC+03:00)
Language:

A-11 Canister half - Orbit

View from above orbital plane
View from above orbital plane
View from above satellite
View from above satellite

Ground track
Ground track

The orbit data is extracted from the following two-line orbital elements,

1 00053U 60009E   24144.92432095 -.00000060  00000-0  25046-3 0  9999
2 00053  47.2745 148.8983 0099079   4.9799 355.1955 12.17334240843546
Epoch (UTC): 23 May 2024 22:11:01
Eccentricity: 0.0099079
inclination: 47.2745°
perigee height: 1525 km
apogee height: 1683 km
right ascension of ascending node: 148.8983°
argument of perigee: 4.9799°
revolutions per day: 12.17334240
mean anomaly at epoch: 355.1955°
orbit number at epoch: 84354

The dashed part of the orbit path shows where the satellite is in the earth's shadow,  

DLR